Weather reports worldwide

Advertisment
Chania/Souda, Greece (16746): temperature & dewpoint: 17.05.2018 04:00:00 - 23.05.2018 04:00:00 (EEST)Chania/Souda, Greece (16746): wind speed: 17.05.2018 04:00:00 - 23.05.2018 04:00:00 (EEST)Chania/Souda, Greece (16746): wind direction: 17.05.2018 04:00:00 - 23.05.2018 04:00:00 (EEST)Chania/Souda, Greece (16746): reduced air pressure: 17.05.2018 04:00:00 - 23.05.2018 04:00:00 (EEST)Chania/Souda, Greece (16746): visibility: 17.05.2018 04:00:00 - 23.05.2018 04:00:00 (EEST)
Date & Time tt [°C] td [°C] ff [km/h] ff [kn] dd ppp [hPa] vv [km]
23.05.2018 04:00:00 19,0 18,0 0 0 N - 9
23.05.2018 03:00:00 19,4 18,8 8 4 E 1016,7 9
23.05.2018 02:00:00 19,0 19,0 0 0 N - 9
23.05.2018 01:00:00 20,0 19,0 8 4 SE - 10
23.05.2018 00:00:00 20,0 18,4 8 4 ENE 1016,5 10
22.05.2018 23:00:00 20,0 18,0 8 4 ENE - 10
22.05.2018 22:00:00 21,0 18,0 5 3 ENE - 10
22.05.2018 21:00:00 21,2 17,7 9 5 ENE 1015,5 10
22.05.2018 20:00:00 22,0 17,0 13 7 SE - 10
22.05.2018 19:00:00 23,0 16,0 11 6 ESE - 10
22.05.2018 18:00:00 23,6 16,5 11 6 ESE 1015,1 10
22.05.2018 17:00:00 23,0 18,0 13 7 E - 10
22.05.2018 16:00:00 23,0 19,0 15 8 E - 10
22.05.2018 15:00:00 23,6 18,6 15 8 E 1015,4 10
22.05.2018 14:00:00 24,0 21,0 15 8 ESE - 10
22.05.2018 13:00:00 24,0 17,0 13 7 E - 10
22.05.2018 12:00:00 24,2 19,6 8 4 ENE 1015,5 10
22.05.2018 11:00:00 23,0 19,0 0 0 N - 10
22.05.2018 10:00:00 22,0 19,0 0 0 N - 10
22.05.2018 09:00:00 20,6 19,3 8 4 NW 1014,7 9
22.05.2018 08:00:00 20,0 19,0 0 0 N - 4,0
22.05.2018 07:00:00 19,0 19,0 0 0 N - 4,0
22.05.2018 06:00:00 19,2 18,6 8 4 WNW 1012,7 8
22.05.2018 05:00:00 20,0 19,0 0 0 N - 7
22.05.2018 04:00:00 20,0 19,0 8 4 W - 6
22.05.2018 03:00:00 20,0 19,4 0 0 N 1011,8 5
22.05.2018 02:00:00 20,0 19,0 0 0 N - 8
22.05.2018 01:00:00 21,0 20,0 0 0 N - 7
22.05.2018 00:00:00 20,6 19,7 8 4 W 1011,4 7
21.05.2018 23:00:00 21,0 20,0 9 5 W - 9
21.05.2018 22:00:00 21,0 20,0 13 7 W - 10
21.05.2018 21:00:00 21,6 20,1 0 0 N 1009,9 10
21.05.2018 20:00:00 22,0 19,0 0 0 N - 10
21.05.2018 19:00:00 23,0 20,0 0 0 N - 10
21.05.2018 18:00:00 23,0 18,9 8 4 ENE 1009,3 10
21.05.2018 17:00:00 24,0 19,0 13 7 NE - 10
21.05.2018 16:00:00 25,0 19,0 15 8 ENE - 10
21.05.2018 15:00:00 25,2 19,3 13 7 NE 1009,8 10
21.05.2018 14:00:00 26,0 19,0 11 6 E - 10
21.05.2018 13:00:00 25,0 19,0 15 8 E - 10
21.05.2018 12:00:00 23,0 19,6 15 8 E 1010,3 10
21.05.2018 11:00:00 23,0 19,0 15 8 E - 10
21.05.2018 10:00:00 24,0 19,0 8 4 ESE - 10
21.05.2018 09:00:00 22,2 18,4 0 0 N 1011,1 9
21.05.2018 08:00:00 21,0 19,0 0 0 N - 8
21.05.2018 07:00:00 20,0 19,0 8 4 ESE - 6
21.05.2018 06:00:00 19,8 19,2 8 4 E 1010,5 6
21.05.2018 05:00:00 20,0 19,0 11 6 ESE - 6
21.05.2018 04:00:00 20,0 19,0 11 6 SE - 6
21.05.2018 03:00:00 20,4 19,4 11 6 SE 1011,3 6
21.05.2018 02:00:00 21,0 20,0 11 6 SE - 6
21.05.2018 01:00:00 21,0 19,0 15 8 E - 7
21.05.2018 00:00:00 20,8 18,9 22 12 E 1011,4 7
20.05.2018 23:00:00 21,0 20,0 22 12 E - 8
20.05.2018 22:00:00 21,0 19,0 15 8 SE - 9
20.05.2018 21:00:00 21,4 19,9 11 6 SE 1011,6 10
20.05.2018 20:00:00 22,0 20,0 15 8 ESE - 10
20.05.2018 19:00:00 23,0 20,0 15 8 SE - 10
20.05.2018 18:00:00 24,8 18,9 9 5 E 1011,9 10
20.05.2018 17:00:00 25,0 18,0 11 6 NE - 10
20.05.2018 16:00:00 25,0 16,0 11 6 NE - 10
20.05.2018 15:00:00 24,4 17,7 11 6 E 1012,0 10
20.05.2018 14:00:00 25,0 18,0 11 6 E - 10
20.05.2018 13:00:00 24,0 18,0 8 4 SE - 10
20.05.2018 12:00:00 23,2 17,8 11 6 E 1012,3 10
20.05.2018 11:00:00 23,0 18,0 8 4 E - 10
20.05.2018 10:00:00 23,0 18,0 0 0 N - 10
20.05.2018 09:00:00 22,0 18,5 8 4 ENE 1012,6 10
20.05.2018 08:00:00 21,0 18,0 8 4 ENE - 10
20.05.2018 07:00:00 20,0 18,0 0 0 N - 10
20.05.2018 06:00:00 20,0 17,7 0 0 N 1011,9 10
20.05.2018 05:00:00 20,0 18,0 0 0 N - 10
20.05.2018 04:00:00 20,0 18,0 0 0 N - 10
20.05.2018 03:00:00 20,8 17,9 0 0 N 1011,3 10
20.05.2018 02:00:00 22,0 16,0 0 0 N - 10
20.05.2018 01:00:00 22,0 16,0 0 0 N - 10
20.05.2018 00:00:00 23,0 15,8 15 8 SE 1010,5 10
19.05.2018 23:00:00 25,0 15,0 9 5 SE - 10
19.05.2018 22:00:00 26,0 15,0 0 0 N - 10
19.05.2018 21:00:00 26,2 14,2 8 4 SSE 1010,7 10
19.05.2018 20:00:00 27,0 15,0 8 4 SE - 10
19.05.2018 19:00:00 28,0 14,0 11 6 W - 10
19.05.2018 18:00:00 30,2 16,2 8 4 ENE 1009,9 10
19.05.2018 17:00:00 30,0 13,0 11 6 ENE - 10
19.05.2018 16:00:00 32,0 17,0 11 6 ENE - 10
19.05.2018 15:00:00 31,6 17,3 15 8 ENE 1010,0 10
19.05.2018 14:00:00 32,0 14,0 11 6 NE - 10
19.05.2018 13:00:00 32,0 16,0 16 9 NE - 10
19.05.2018 12:00:00 31,0 18,0 8 4 - 1010,3 10
19.05.2018 11:00:00 30,0 17,0 0 0 N - 10
19.05.2018 10:00:00 29,0 16,0 9 5 ENE - 10
19.05.2018 09:00:00 25,0 17,0 0 0 N 1010,3 10
19.05.2018 08:00:00 22,0 17,0 9 5 W - 10
19.05.2018 07:00:00 23,0 17,0 8 4 WNW - 10
19.05.2018 06:00:00 22,2 17,4 0 0 N 1009,6 10
19.05.2018 05:00:00 23,0 17,0 0 0 N - 10
19.05.2018 04:00:00 23,0 16,0 0 0 N - 10
19.05.2018 03:00:00 22,4 16,5 0 0 N 1010,6 10
19.05.2018 02:00:00 23,0 14,0 0 0 N - 10
19.05.2018 01:00:00 23,0 17,0 0 0 N - 10
19.05.2018 00:00:00 22,6 17,1 0 0 N 1012,0 10
18.05.2018 23:00:00 22,0 16,0 0 0 N - 10
18.05.2018 22:00:00 22,0 17,0 0 0 N - 10
18.05.2018 21:00:00 23,4 15,5 0 0 N 1011,9 10
18.05.2018 20:00:00 24,0 16,0 8 4 SE - 10
18.05.2018 19:00:00 24,0 16,0 11 6 SSE - 10
18.05.2018 18:00:00 24,6 15,4 18 10 SE 1012,9 10
18.05.2018 17:00:00 25,0 12,0 18 10 ESE - 10
18.05.2018 16:00:00 25,0 14,0 18 10 ESE - 10
18.05.2018 15:00:00 25,0 10,8 22 12 SE 1014,2 10
18.05.2018 14:00:00 27,0 10,0 15 8 ESE - 10
18.05.2018 13:00:00 28,0 12,0 13 7 SSE - 10
18.05.2018 12:00:00 27,8 14,2 8 4 SE 1014,3 10
18.05.2018 11:00:00 26,0 17,0 13 7 ESE - 10
18.05.2018 10:00:00 24,0 17,0 9 5 ESE - 10
18.05.2018 09:00:00 24,6 13,4 8 4 ESE 1014,3 10
18.05.2018 08:00:00 23,0 12,0 0 0 N - 10
18.05.2018 07:00:00 22,0 15,0 8 4 SSE - 10
18.05.2018 06:00:00 20,2 15,1 0 0 N 1013,8 10
18.05.2018 05:00:00 20,0 15,0 0 0 N - 10
18.05.2018 04:00:00 20,0 18,0 8 4 SE - 10
18.05.2018 03:00:00 20,6 17,4 8 4 SSE 1014,0 10
18.05.2018 02:00:00 21,0 15,0 9 5 SE - 10
18.05.2018 01:00:00 21,0 19,0 0 0 N - 10
18.05.2018 00:00:00 20,8 18,9 0 0 N 1015,4 10
17.05.2018 23:00:00 21,0 20,0 0 0 N - 10
17.05.2018 22:00:00 22,0 20,0 8 4 WNW - 10
17.05.2018 21:00:00 22,8 17,3 8 4 WNW 1014,7 10
17.05.2018 20:00:00 26,0 17,0 0 0 N - 10
17.05.2018 19:00:00 27,0 18,0 8 4 WNW - 10
17.05.2018 18:00:00 26,4 18,6 8 4 WNW 1014,2 10
17.05.2018 17:00:00 28,0 18,0 15 8 WNW - 10
17.05.2018 16:00:00 29,0 15,0 18 10 SE - 10
17.05.2018 15:00:00 29,0 16,2 13 7 ENE 1014,3 10
17.05.2018 14:00:00 29,0 17,0 8 4 SE - 10
17.05.2018 13:00:00 28,0 17,0 15 8 ENE - 10
17.05.2018 12:00:00 28,4 16,2 8 4 WSW 1015,5 10
17.05.2018 11:00:00 25,0 15,0 18 10 WNW - 10
17.05.2018 10:00:00 24,0 16,0 16 9 NW - 10
17.05.2018 09:00:00 24,0 18,3 0 0 N 1014,9 10
17.05.2018 08:00:00 23,0 16,0 0 0 N - 10
17.05.2018 07:00:00 20,0 15,0 0 0 N - 10
17.05.2018 06:00:00 18,8 14,3 0 0 N 1014,2 10
17.05.2018 05:00:00 19,0 15,0 0 0 N - 10
17.05.2018 04:00:00 19,0 16,0 8 4 W - 10

tt = temperature
td = dewpoint
ff = wind speed
dd = wind direction
ppp = reduced air pressure
vv = visibility

Next stations